STARLINK-32101, 60447

Orbit data source: Space-Track

STARLINK-32101, 60447 is a payload satellite owned by SpaceX/Seattle (US) in LEO that was launched on Mon, 12 Aug 2024 UTC via an FALCON 9 launch vehicle from the Air Force Eastern Test Range (AFETR). Payload-class satellites include a variety of spacecraft equipped with specific instruments for various scientific and technological missions. These include communications satellites like Starlink; space stations such as the ISS; scientific satellites like the Hubble; Earth observation satellites from companies like Planet Labs, Umbra, and HawkEye 360; GPS; miniature CubeSats for education and research; and military/defense satellites.

Loading next visibility...
Identifier
60447, 2024-144Y
Orbit
LEO
Country
Flag of USUS
Related business
Manufacturer
SpaceX/Seattle
Mission
Operational Commercial Communications
Bus & Motor
STARLINK V2M, Unknown motor
Mass
730 kg wet, ~700 kg dry
Launch date (UTC)
2024-08-12 (2 years ago)
Launch vehicle
FALCON 9
Launch site
Air Force Eastern Test Range (AFETR)
Object type
Payload
Rocket body
Debris
Shape & HBR
Box + 2 Pan, 17.7 m
Radar Cross Section
33.884 m², Large (>1 m²)

Expand to show TLE details & history
Last TLE update: 23 hours ago

TLE from 23 hours ago
0 STARLINK-32101
1 60447U 24144Y   26170.95329722  .00000546  00000-0  27298-4 0  9998
2 60447  53.1608 100.1810 0001172  87.4127 272.7010 15.34396263104991
Epoch: 2026-06-19T22:52Z
TLE epoch observation values (Epoch: 2026-06-19T22:52:44.879Z)
Latitude
-0.00002°
Longitude
-151.18089°
Altitude
463.578 km
Speed
7.636 km/s
True Right ascension
06h 40m 43s
True Declination
0° 00' 00"
Sunlit
Object was in daylight at epoch
Visualization orbit readout
Latitude
Unknown
Longitude
Unknown
Altitude
Unknown
Speed
Unknown
Apparent Right ascension
Unknown
Apparent Declination
Unknown
Sunlit
N/A
Visualization observer readout
Local Sidereal Time
08:32:37
Azimuth
Unknown
Elevation
Unknown
Doppler factor
Unknown
Orbital elements
Apogee altitude
463.773 km
Perigee altitude
462.169 km
Semi-major axis
6,841.108 km
Eccentricity
0.00012
Inclination
53.1608°
RAAN
100.181°
Arg. of periapsis
87.4127°
True anomaly
272.68758°
Mean anomaly
272.701°
Eccentric anomaly
272.69429°
Mean motion
3.83578 °/min
Orbital period
93.85 mins
BSTAR
0.000027298
Loading maneuver chart data...
Computing Atmospheric mass density...
Loading historical data...
Loading historical data...
Loading historical data...
Loading historical data...
Loading historical data...
Loading historical data...
Loading historical data...

Documentation

Showing up to 5 results
|